Location: Centerville
(32.8776°N, 96.6203°W)
Time: 02:21:04
(UTC+00:00)

Aureole 1 Rocket - Pass Details

Date: 17 June 2021
Orbit: 377 x 1372 km, 73.9° (Epoch: 27 July)

Event Time Altitude Azimuth Distance (km) Brightness Sun altitude
Rises 04:20:11 0° 344° (NNW) 3,477 8.1 -26.1°
Reaches altitude 10° 04:22:26 10° 345° (NNW) 2,668 7.2 -26.3°
Maximum altitude 04:28:49 82° 74° (ENE) 1,137 4.2 -27.0°
Enters shadow 04:30:18 61° 150° (SSE) 1,306 4.2 -27.2°
